www.pogodaiklimat.ru

Погода и климат >> Архив погоды >> Россия >> Чукотка >> Илирней


ПОГОДА в Илирнее

  • Прогноз погоды в Илирнее
  • Монитор погоды в Илирнее
  • Климат города

АРХИВ ПОГОДЫ в Илирнее

Время (UTC), дата Ветер
(напр.,м/с)
 
Видим.   Явления Облачность Т
(С)
Тd
(С)
f
(%)
Тe
(С)
Тes
(С)
Комфортность P
(гПа)
Po
(гПа)
Тmin
(С)
Tmax
(С)
R
(мм)
R24
(мм)
S
(см)
06 17.08 З 1
{5}
50 км слабый дождь 10/0
[Ac und]
+9.7 +7.4 86 +9 +10 1003.8 962.1
09 17.08 З 1
{4}
20 км {дождь} 10/0
[Ac und]
+9.3 +4.3 71 +9 +9 1005.4 963.5 +13.8 1
12 17.08 штиль 0
{4}
20 км {дождь} 10/0
[Ac und]
+7.9 +5.0 82 +7 +7 1006.4 964.3
15 17.08 штиль 0
{4}
20 км 10/0
[Ac und]
+6.1 +3.0 80 +5 +5 1006.8 964.4
18 17.08 штиль 0
{3}
50 км 10/0
[Ac und]
+6.4 +4.1 85 +5 +6 1008.1 965.6
21 17.08 штиль 0
{5}
50 км 10/0
[Ac und]
+7.8 +3.0 72 +7 +9 1007.2 965.0 +6.1
00 18.08 З 5
{11}
50 км 10/0
[Ac und]
+6.8 +1.9 71 +3 +4 1011.9 969.4
03 18.08 З 5
{10}
50 км 8/0
[Ac trans]
+8.7 +0.9 58 +6 +7 1011.5 969.2
06 18.08 З 3
{9}
50 км 8/0
[Ac trans]
+8.2 +0.6 59 +6 +7 1011.9 969.6
09 18.08 З 1
{7}
50 км 4/0
[Ac trans]
+5.0 +0.3 72 +4 +4 1012.6 969.8 +9.5
12 18.08 В 1
{4}
20 км 4/0
[Ac trans]
-0.5 -1.1 96 -3 -3 1014.4 970.5
15 18.08 штиль 0
{2}
50 км 3/0
[Ac trans]
-3.3 -4.0 95 -5 -5 1014.8 970.4
18 18.08 штиль 0
{2}
50 км 3/0
[Ac trans]
-2.2 -3.7 89 -3 -3 1015.5 971.2
21 18.08 штиль 0
{2}
50 км 6/0
[Ac trans]
+3.7 +0.3 78 +3 +6 1014.3 971.1 -4.2
00 19.08 СЗ 2
{3}
50 км 3/0
[Ac trans]
+9.7 +1.3 56 +9 +14 1013.0 970.8
03 19.08 З 1
{4}
50 км ясно +13.0 +0.6 43 +13 +20 1012.3 970.7
06 19.08 Ю 1
{5}
50 км ясно +14.2 +0.9 40 +15 +17 1011.7 970.3
09 19.08 штиль 0
{3}
50 км 3/0
[Ac trans]
+7.7 +3.4 74 +7 +7 1013.5 971.1 +14.5
12 19.08 штиль 0
{2}
20 км 3/0
[Ac trans]
+0.1 -0.5 96 -1 -1 1015.3 971.6
15 19.08 штиль 0
{2}
50 км 6/0
[Ac trans]
-1.4 -1.9 96 -3 -3 1015.6 971.6
18 19.08 штиль 0
{2}
50 км 8/0
[Ac trans]
-0.8 -1.2 97 -2 -2 1014.9 971.1
21 19.08 В 3
{5}
50 км 3/0
[Ac trans]
+9.1 +2.7 64 +7 +9 1011.0 968.9 -1.5
00 20.08 ЮВ 4
{11}
50 км 4/0
[Cs]
+15.5 -0.5 33 +15 +19 1007.0 965.9
03 20.08 ЮВ 4
{10}
50 км 10/0
[Ac und]
+15.2 +2.7 43 +14 +15 1005.3 964.3
06 20.08 ЮЗ 2
{7}
50 км 10/0
[Ac und]
+14.3 +5.0 54 +14 +15 1004.6 963.4
09 20.08 штиль 0
{8}
50 км 10/0
[Ac und]
+13.5 +7.8 68 +13 +13 1004.3 963.1 +15.5
12 20.08 штиль 0
{9}
50 км 10/0
[Ac und]
+12.0 +6.8 70 +12 +12 1004.4 963.1
15 20.08 штиль 0
{8}
20 км 10/0
[Ac und]
+10.1 +5.5 73 +10 +10 1005.2 963.4
18 20.08 штиль 0
{6}
50 км 10/0
[Ac und]
+6.5 +1.5 70 +6 +6 1006.6 964.2
21 20.08 З 4
{12}
50 км 10/0
[Ac und]
+8.7 +5.8 82 +6 +6 1010.1 968.0 +6.5
00 21.08 З 4
{10}
50 км 10/0
[Ac und]
+9.5 +5.8 78 +7 +8 1011.3 969.1
03 21.08 З 6
{10}
50 км 10/0
[Ac und]
+10.7 +5.3 69 +8 +8 1011.9 970.0
06 21.08 СЗ 3
{11}
50 км 10/0
[Ac und]
+11.6 +4.3 61 +10 +11 1012.8 970.9
09 21.08 штиль 0
{5}
50 км 6/0
[Ac trans]
+8.1 +5.0 81 +7 +7 1014.0 971.6 +12.0
12 21.08 Ю 1
{3}
20 км 10/0
[Ac und]
+7.2 +5.9 91 +6 +6 1014.6 972.0
15 21.08 З 5
{11}
20 км 10/0
[Ac und]
+7.9 +5.6 85 +4 +4 1014.9 972.5
18 21.08 З 3
{11}
50 км 4/0
[Ac trans]
+5.7 +2.5 80 +2 +3 1017.0 974.0
21 21.08 З 3
{8}
50 км 4/0
[Ac trans]
+9.1 +3.2 67 +7 +9 1016.8 974.4 +5.7
00 22.08 штиль 0
{5}
50 км 4/0
[Ac trans]
+15.0 +0.4 37 +15 +22 1015.5 974.0
03 22.08 СЗ 4
{9}
50 км 10/0
[Ac und]
+11.9 +1.9 50 +10 +11 1015.8 973.9
06 22.08 СЗ 3
{7}
50 км 3/0
[Ac trans]
+12.4 +2.3 50 +11 +12 1014.7 972.9
09 22.08 З 3
{8}
50 км ясно +11.0 +4.1 62 +9 +9 1013.5 971.5 +15.0
12 22.08 штиль 0
{8}
20 км 4/0
[Ac trans]
+0.3 -0.3 96 -1 -1 1016.2 972.5
15 22.08 штиль 0
{2}
50 км 4/0
[Ac trans]
-1.6 -2.7 92 -3 -3 1016.1 971.9
18 22.08 штиль 0
{3}
50 км 10/0
[Ac und]
-1.2 -1.7 96 -3 -2 1015.7 971.5
21 22.08 штиль 0
{3}
50 км 8/0
[Cs]
+5.1 +2.4 83 +4 +8 1012.8 970.0 -1.7
00 23.08 штиль 0
{2}
50 км 10/0
[Cs]
+13.1 +5.1 58 +13 +20 1010.0 968.5
03 23.08 штиль 0
{2}
50 км 10/0
[Ac trans Cs]
+16.2 +5.3 48 +16 +21 1007.7 966.7
06 23.08 штиль 0
{2}
50 км 8/0
[Ac trans Cs]
+17.2 +5.1 45 +17 +19 1006.3 965.5
09 23.08 штиль 0
{4}
50 км 4/0
[Cs]
+8.8 +5.5 80 +8 +8 1007.6 965.6 +17.2
12 23.08 ЮВ 1
{2}
20 км 8/0
[Ac trans]
+1.4 +0.9 96 -1 -1 1009.3 966.0
15 23.08 ЮВ 1
{2}
20 км 10/0
[Ac und]
+1.0 +0.5 96 -1 -1 1009.2 965.9
18 23.08 штиль 0
{1}
50 км 8/0
[Ac trans Cs]
+1.0 +0.5 96 -0 -0 1009.3 966.0
21 23.08 штиль 0
{1}
50 км ясно +9.2 +4.1 70 +9 +13 1007.3 965.3 +0.2
00 24.08 штиль 0
{3}
50 км 4/0
[Ac trans Cs]
+17.5 +5.8 46 +18 +24 1005.2 964.4
03 24.08 штиль 0
{3}
50 км 8/0
[Ac trans]
+19.8 +7.0 43 +20 +24 1003.9 963.5

 

Местоположение метеостанции Илирней (Чукотка, Россия): широта 67.25 долгота 167.90 высота над уровнем моря 354 м.

В архиве по умолчанию представлена погода в Илирнее за последнюю неделю. Архивные данные за месяц целиком и за предыдущие месяцы, начиная с января 2011 года, Вы можете получить, выбрав интересующий диапазон дат из раскрывающегося списка и нажав кнопку "Ввод!".

Внимание! Время в таблицах - всемирное. Для получения местного времени необходимо прибавить поправку, которая в Илирнее равна 12 ч.

Смотрите также архив погоды в соседних городах и на ближайших метеорологических станциях:

Погода в Билибино (Чукотка, Россия) (109 км)
Погода в Баимке (Чукотка, Россия) (180 км)
Погода на Островном (Чукотка, Россия) (187 км)
Погода в Чауне (Чукотка, Россия) (215 км)
Погода в Эньмувееме (Чукотка, Россия) (255 км)
Погода в Раучуе (Чукотка, Россия) (257 км)
Погода в Майской (Чукотка, Россия) (276 км)
Погода в Певеке (Чукотка, Россия) (288 км)
Погода в 21 км (Чукотка, Россия) (290 км)
Погода в Комсомольской (Чукотка, Россия) (291 км)

Пояснения к столбцам:

Ветер - указаны скорость ветра в м/с - средняя за 10 мин, порывы в срок и между сроками (в фигурных скобках) и направление, откуда дует ветер: С - северный, СВ - северо-восточный, В - восточный, ЮВ - юго-восточный, Ю - южный, ЮЗ - юго-западный, З - западный, СЗ - северо-западный.
Видимость - горизонтальная дальность видимости в метрах или километрах. При видимости от 1 до 10 км при отсутствии осадков обычно наблюдается дымка, при ухудшении видимости до 1 км и менее - туман. В сухую погоду видимость может ухудшаться дымом, пылью или мглою.
Явления - указаны атмосферные явления, наблюдавшиеся в срок или в последний час перед сроком; фигурными скобками обозначены явления, наблюдавшиеся между сроками (за 1-3 часа до срока); квадратными скобками обозначены град или гололедные отложения с указанием их диаметра в мм.
Облачность - указаны через наклонную черту общая и нижняя облачность в баллах и высота нижней границы облаков в метрах; квадратными скобками обозначены формы облаков: Ci - перистые, Cs - перисто-слоистые, Cc - перисто-кучевые, Ac - высококучевые, As - высокослоистые, Sc - слоисто-кучевые, Ns - слоисто-дождевые, Cu - кучевые, Cb - кучево-дождевые. Подробнее классификацию облаков см. в Атласе облаков (PDF).
T - Температура воздуха - температура, измеренная на высоте 2 м над землей.
Td - Температура точки росы - температура, при понижении до которой содержащийся в воздухе водяной пар достигнет насыщения.
f - Относительная влажность воздуха - влажноcть воздуха, измеренная на высоте 2 м над землей.
Te - Эффективная температура - температура, которую ощущает одетый по сезону человек в тени. Характеристика душности погоды. При расчете учитывается влияние влажности воздуха и скорости ветра на теплоощущения человека.
Tes - Эффективная температура на солнце - температура, которую ощущает человек, с поправкой на солнечный нагрев. Характеристика знойности погоды. Зависит от высоты солнца над горизонтом, облачности и скорости ветра. Ночью, в пасмурную погоду, а также при ветре 12 м/с и более поправка равна нулю.
P - Атмосферное давление - приведенное к уровню моря атмосферное давление.
Po - Атмосферное давление - измеренное на уровне метеостанции атмосферное давление.
Tmin - Минимальная температура - минимум температуры воздуха на высоте 2 м над землей.
Tmax - Максимальная температура - максимум температуры воздуха на высоте 2 м над землей.
R - Количество осадков - Количество выпавших осадков за период времени, мм. При наведении курсора мыши на число - период времени, за который выпало указанное количество осадков.
R24 - Количество осадков - Количество выпавших осадков за 24 часа, мм.
S - Снежный покров - Высота снежного покрова, см. При наведении курсора мыши на число - состояние снежного покрова и степень покрытия местности в баллах.